Time,TemperatureF,DewpointF,PressureIn,WindDirection,WindDirectionDegrees,WindSpeedMPH,WindSpeedGustMPH,Humidity,HourlyPrecipIn,Conditions,Clouds,dailyrainin,SolarRadiationWatts/m^2,SoftwareType,DateUTC
2013-08-14 00:00:00,69.6,59.0,29.83,NNW,333,3.0,3.0,69,0.00,,,0.00,0,Wunderground v.1.15,2013-08-14 04:00:00,
2013-08-14 00:10:00,69.3,58.7,29.84,NNW,340,1.0,1.0,69,0.00,,,0.00,0,Wunderground v.1.15,2013-08-14 04:10:00,
2013-08-14 00:20:00,69.0,58.8,29.83,NNE,24,2.0,4.0,70,0.00,,,0.00,0,Wunderground v.1.15,2013-08-14 04:20:00,
2013-08-14 00:30:00,68.5,57.9,29.84,NW,319,3.0,4.0,69,0.00,,,0.00,0,Wunderground v.1.15,2013-08-14 04:30:00,
2013-08-14 00:40:00,68.0,57.0,29.84,NW,325,4.0,4.0,68,0.00,,,0.00,0,Wunderground v.1.15,2013-08-14 04:40:00,
2013-08-14 00:50:00,67.3,56.0,29.85,NW,309,3.0,3.0,67,0.00,,,0.00,0,Wunderground v.1.15,2013-08-14 04:50:00,
2013-08-14 01:00:00,66.6,54.9,29.85,NNW,338,3.0,5.0,66,0.00,,,0.00,0,Wunderground v.1.15,2013-08-14 05:00:00,
2013-08-14 01:10:00,66.2,54.5,29.85,NW,322,3.0,3.0,66,0.00,,,0.00,0,Wunderground v.1.15,2013-08-14 05:10:00,
2013-08-14 01:20:00,65.7,54.4,29.86,NNW,337,2.0,2.0,67,0.00,,,0.00,0,Wunderground v.1.15,2013-08-14 05:20:00,
2013-08-14 01:30:00,65.2,54.4,29.86,NNW,342,1.0,1.0,68,0.00,,,0.00,0,Wunderground v.1.15,2013-08-14 05:30:00,
2013-08-14 01:40:00,64.8,54.0,29.86,North,351,0.0,0.0,68,0.00,,,0.00,0,Wunderground v.1.15,2013-08-14 05:40:00,
2013-08-14 01:50:00,64.4,52.8,29.87,NNW,338,2.0,2.0,66,0.00,,,0.00,0,Wunderground v.1.15,2013-08-14 05:50:00,
2013-08-14 02:00:00,64.0,52.0,29.87,NW,311,1.0,3.0,65,0.00,,,0.00,0,Wunderground v.1.15,2013-08-14 06:00:00,
2013-08-14 02:10:00,63.8,51.4,29.88,NNW,333,2.0,3.0,64,0.00,,,0.00,0,Wunderground v.1.15,2013-08-14 06:10:00,
2013-08-14 02:20:00,63.4,51.0,29.87,NW,309,2.0,2.0,64,0.00,,,0.00,0,Wunderground v.1.15,2013-08-14 06:20:00,
2013-08-14 02:30:00,63.1,50.7,29.88,NNW,327,2.0,2.0,64,0.00,,,0.00,0,Wunderground v.1.15,2013-08-14 06:30:00,
2013-08-14 02:40:00,62.7,51.2,29.88,NNW,329,1.0,1.0,66,0.00,,,0.00,0,Wunderground v.1.15,2013-08-14 06:40:00,
2013-08-14 02:50:00,62.3,50.8,29.88,NNW,333,1.0,5.0,66,0.00,,,0.00,0,Wunderground v.1.15,2013-08-14 06:50:00,
2013-08-14 03:00:00,61.9,50.8,29.88,NNW,337,1.0,3.0,67,0.00,,,0.00,0,Wunderground v.1.15,2013-08-14 07:00:00,
2013-08-14 03:10:00,61.5,50.8,29.89,North,349,1.0,1.0,68,0.00,,,0.00,0,Wunderground v.1.15,2013-08-14 07:10:00,
2013-08-14 03:20:00,61.1,50.8,29.89,NNW,345,1.0,1.0,69,0.00,,,0.00,0,Wunderground v.1.15,2013-08-14 07:20:00,
2013-08-14 03:30:00,60.5,50.7,29.89,North,350,0.0,0.0,70,0.00,,,0.00,0,Wunderground v.1.15,2013-08-14 07:30:00,
2013-08-14 03:40:00,59.9,50.8,29.89,North,349,0.0,0.0,72,0.00,,,0.00,0,Wunderground v.1.15,2013-08-14 07:40:00,
2013-08-14 03:50:00,59.0,50.7,29.89,North,349,0.0,0.0,74,0.00,,,0.00,0,Wunderground v.1.15,2013-08-14 07:50:00,
2013-08-14 04:00:00,58.4,50.9,29.89,North,349,0.0,0.0,76,0.00,,,0.00,0,Wunderground v.1.15,2013-08-14 08:00:00,
2013-08-14 04:10:00,57.7,50.9,29.89,North,349,0.0,0.0,78,0.00,,,0.00,0,Wunderground v.1.15,2013-08-14 08:10:00,
2013-08-14 04:20:00,58.2,50.7,29.89,North,349,0.0,1.0,76,0.00,,,0.00,0,Wunderground v.1.15,2013-08-14 08:20:00,
2013-08-14 04:30:00,58.3,50.8,29.90,NNW,342,0.0,0.0,76,0.00,,,0.00,0,Wunderground v.1.15,2013-08-14 08:30:00,
2013-08-14 04:40:00,58.4,50.5,29.90,NNW,342,0.0,0.0,75,0.00,,,0.00,0,Wunderground v.1.15,2013-08-14 08:40:00,
2013-08-14 04:50:00,58.3,50.8,29.90,NNW,342,0.0,0.0,76,0.00,,,0.00,0,Wunderground v.1.15,2013-08-14 08:50:00,
2013-08-14 05:00:00,58.0,50.5,29.90,NNW,341,0.0,0.0,76,0.00,,,0.00,0,Wunderground v.1.15,2013-08-14 09:00:00,
2013-08-14 05:10:00,57.5,50.3,29.91,NNW,341,0.0,0.0,77,0.00,,,0.00,0,Wunderground v.1.15,2013-08-14 09:10:00,
2013-08-14 05:20:00,57.3,50.5,29.90,NNW,341,0.0,0.0,78,0.00,,,0.00,0,Wunderground v.1.15,2013-08-14 09:20:00,
2013-08-14 05:30:00,57.2,50.4,29.90,NNW,341,0.0,0.0,78,0.00,,,0.00,0,Wunderground v.1.15,2013-08-14 09:30:00,
2013-08-14 05:40:00,57.1,50.3,29.91,West,271,0.0,0.0,78,0.00,,,0.00,0,Wunderground v.1.15,2013-08-14 09:40:00,
2013-08-14 05:50:00,56.9,50.1,29.91,West,272,0.0,0.0,78,0.00,,,0.00,0,Wunderground v.1.15,2013-08-14 09:50:00,
2013-08-14 06:00:00,56.6,49.8,29.91,West,272,0.0,0.0,78,0.00,,,0.00,0,Wunderground v.1.15,2013-08-14 10:00:00,
2013-08-14 06:10:00,56.5,49.7,29.91,West,272,0.0,0.0,78,0.00,,,0.00,0,Wunderground v.1.15,2013-08-14 10:10:00,
2013-08-14 06:20:00,56.5,49.7,29.92,WNW,286,0.0,1.0,78,0.00,,,0.00,0,Wunderground v.1.15,2013-08-14 10:20:00,
2013-08-14 06:30:00,56.6,49.5,29.92,WNW,283,0.0,0.0,77,0.00,,,0.00,7,Wunderground v.1.15,2013-08-14 10:30:00,
2013-08-14 06:40:00,56.6,49.5,29.92,WNW,283,0.0,0.0,77,0.00,,,0.00,16,Wunderground v.1.15,2013-08-14 10:40:00,
2013-08-14 06:50:00,57.1,49.6,29.93,WNW,283,0.0,0.0,76,0.00,,,0.00,26,Wunderground v.1.15,2013-08-14 10:50:00,
2013-08-14 07:00:00,57.4,49.9,29.93,WNW,282,0.0,0.0,76,0.00,,,0.00,46,Wunderground v.1.15,2013-08-14 11:00:00,
2013-08-14 07:10:00,57.7,50.2,29.93,WNW,282,0.0,0.0,76,0.00,,,0.00,72,Wunderground v.1.15,2013-08-14 11:10:00,
2013-08-14 07:20:00,58.1,50.6,29.93,WNW,282,0.0,0.0,76,0.00,,,0.00,102,Wunderground v.1.15,2013-08-14 11:20:00,
2013-08-14 07:30:00,58.8,50.5,29.94,WNW,282,0.0,0.0,74,0.00,,,0.00,74,Wunderground v.1.15,2013-08-14 11:30:00,
2013-08-14 07:40:00,59.7,51.8,29.94,WNW,282,0.0,0.0,75,0.00,,,0.00,167,Wunderground v.1.15,2013-08-14 11:40:00,
2013-08-14 07:50:00,60.4,51.3,29.94,West,262,0.0,0.0,72,0.00,,,0.00,207,Wunderground v.1.15,2013-08-14 11:50:00,
2013-08-14 08:00:00,61.0,51.1,29.94,West,273,0.0,0.0,70,0.00,,,0.00,237,Wunderground v.1.15,2013-08-14 12:00:00,
2013-08-14 08:10:00,61.5,51.2,29.95,WNW,282,0.0,0.0,69,0.00,,,0.00,274,Wunderground v.1.15,2013-08-14 12:10:00,
2013-08-14 08:20:00,62.3,52.0,29.96,West,281,0.0,0.0,69,0.00,,,0.00,308,Wunderground v.1.15,2013-08-14 12:20:00,
2013-08-14 08:30:00,62.2,51.1,29.96,West,275,2.0,2.0,67,0.00,,,0.00,346,Wunderground v.1.15,2013-08-14 12:30:00,
2013-08-14 08:40:00,62.8,51.3,29.96,WNW,298,2.0,2.0,66,0.00,,,0.00,383,Wunderground v.1.15,2013-08-14 12:40:00,
2013-08-14 08:50:00,63.0,51.0,29.96,NW,316,4.0,4.0,65,0.00,,,0.00,420,Wunderground v.1.15,2013-08-14 12:50:00,
2013-08-14 09:00:00,63.6,52.0,29.96,NW,307,3.0,3.0,66,0.00,,,0.00,454,Wunderground v.1.15,2013-08-14 13:00:00,
2013-08-14 09:10:00,64.3,51.0,29.95,NW,315,2.0,2.0,62,0.00,,,0.00,483,Wunderground v.1.15,2013-08-14 13:10:00,
2013-08-14 09:20:00,64.3,51.9,29.96,NNW,330,5.0,5.0,64,0.00,,,0.00,526,Wunderground v.1.15,2013-08-14 13:20:00,
2013-08-14 09:30:00,64.2,51.3,29.97,North,355,4.0,10.0,63,0.00,,,0.00,577,Wunderground v.1.15,2013-08-14 13:30:00,
2013-08-14 09:40:00,63.8,51.0,29.97,WSW,254,4.0,6.0,63,0.00,,,0.00,714,Wunderground v.1.15,2013-08-14 13:40:00,
2013-08-14 09:50:00,65.3,51.9,29.98,NNW,338,4.0,4.0,62,0.00,,,0.00,812,Wunderground v.1.15,2013-08-14 13:50:00,
2013-08-14 10:00:00,65.8,52.0,29.98,WNW,296,3.0,4.0,61,0.00,,,0.00,276,Wunderground v.1.15,2013-08-14 14:00:00,
2013-08-14 10:10:00,64.8,51.9,29.98,NW,309,2.0,3.0,63,0.00,,,0.00,258,Wunderground v.1.15,2013-08-14 14:10:00,
2013-08-14 10:20:00,65.0,51.7,29.99,NW,304,2.0,2.0,62,0.00,,,0.00,229,Wunderground v.1.15,2013-08-14 14:20:00,
2013-08-14 10:30:00,65.3,51.9,29.99,West,276,3.0,9.0,62,0.00,,,0.00,410,Wunderground v.1.15,2013-08-14 14:30:00,
2013-08-14 10:40:00,66.0,51.3,29.99,NW,317,3.0,6.0,59,0.00,,,0.00,306,Wunderground v.1.15,2013-08-14 14:40:00,
2013-08-14 10:50:00,66.5,52.6,29.99,North,355,6.0,6.0,61,0.00,,,0.00,1044,Wunderground v.1.15,2013-08-14 14:50:00,
2013-08-14 11:00:00,66.6,51.8,29.99,NNW,330,5.0,5.0,59,0.00,,,0.00,925,Wunderground v.1.15,2013-08-14 15:00:00,
2013-08-14 11:10:00,67.6,52.8,29.99,NW,311,4.0,4.0,59,0.00,,,0.00,297,Wunderground v.1.15,2013-08-14 15:10:00,
2013-08-14 11:20:00,68.1,54.1,30.00,North,360,4.0,6.0,61,0.00,,,0.00,932,Wunderground v.1.15,2013-08-14 15:20:00,
2013-08-14 11:30:00,67.5,52.7,30.00,NW,313,3.0,4.0,59,0.00,,,0.00,299,Wunderground v.1.15,2013-08-14 15:30:00,
2013-08-14 11:40:00,68.8,53.4,30.00,WNW,296,5.0,5.0,58,0.00,,,0.00,962,Wunderground v.1.15,2013-08-14 15:40:00,
2013-08-14 11:50:00,69.3,52.9,29.99,NW,321,5.0,6.0,56,0.00,,,0.00,949,Wunderground v.1.15,2013-08-14 15:50:00,
2013-08-14 12:00:00,69.2,53.8,30.00,NNW,341,6.0,10.0,58,0.00,,,0.00,976,Wunderground v.1.15,2013-08-14 16:00:00,
2013-08-14 12:10:00,69.6,54.2,30.00,NW,326,6.0,6.0,58,0.00,,,0.00,1093,Wunderground v.1.15,2013-08-14 16:10:00,
2013-08-14 12:20:00,69.2,53.8,30.00,NNW,343,7.0,7.0,58,0.00,,,0.00,1079,Wunderground v.1.15,2013-08-14 16:20:00,
2013-08-14 12:30:00,69.5,53.1,30.00,NNW,332,6.0,6.0,56,0.00,,,0.00,1035,Wunderground v.1.15,2013-08-14 16:30:00,
2013-08-14 12:40:00,69.6,53.7,30.00,NW,312,4.0,4.0,57,0.00,,,0.00,362,Wunderground v.1.15,2013-08-14 16:40:00,
2013-08-14 13:10:00,69.3,52.9,30.00,North,360,5.0,5.0,56,0.00,,,0.00,1034,Wunderground v.1.15,2013-08-14 17:10:00,
2013-08-14 13:20:00,70.3,52.9,30.00,NW,313,7.0,7.0,54,0.00,,,0.00,1028,Wunderground v.1.15,2013-08-14 17:20:00,
2013-08-14 13:30:00,70.3,52.4,30.00,NNW,346,6.0,6.0,53,0.00,,,0.00,327,Wunderground v.1.15,2013-08-14 17:30:00,
2013-08-14 13:40:00,70.1,53.2,30.00,NNE,19,5.0,6.0,55,0.00,,,0.00,309,Wunderground v.1.15,2013-08-14 17:40:00,
2013-08-14 13:50:00,70.0,53.1,30.00,NW,317,6.0,6.0,55,0.00,,,0.00,1143,Wunderground v.1.15,2013-08-14 17:50:00,
2013-08-14 14:00:00,70.6,53.6,30.00,NNW,342,4.0,4.0,55,0.00,,,0.00,937,Wunderground v.1.15,2013-08-14 18:00:00,
2013-08-14 14:10:00,70.9,53.9,30.00,NNW,348,5.0,6.0,55,0.00,,,0.00,244,Wunderground v.1.15,2013-08-14 18:10:00,
2013-08-14 14:20:00,71.5,55.5,30.00,WNW,301,5.0,5.0,57,0.00,,,0.00,1046,Wunderground v.1.15,2013-08-14 18:20:00,
2013-08-14 14:30:00,71.6,54.1,30.00,NNW,336,5.0,5.0,54,0.00,,,0.00,441,Wunderground v.1.15,2013-08-14 18:30:00,
2013-08-14 14:40:00,70.6,52.6,30.00,NNW,330,4.0,5.0,53,0.00,,,0.00,253,Wunderground v.1.15,2013-08-14 18:40:00,
2013-08-14 14:50:00,71.6,53.6,30.00,WNW,298,6.0,6.0,53,0.00,,,0.00,1099,Wunderground v.1.15,2013-08-14 18:50:00,
2013-08-14 15:00:00,70.3,54.8,30.00,NW,322,3.0,3.0,58,0.00,,,0.00,322,Wunderground v.1.15,2013-08-14 19:00:00,
2013-08-14 15:30:00,71.1,54.1,30.00,NW,323,3.0,3.0,55,0.00,,,0.00,916,Wunderground v.1.15,2013-08-14 19:30:00,
2013-08-14 15:40:00,72.6,52.9,29.99,WNW,292,3.0,3.0,50,0.00,,,0.00,847,Wunderground v.1.15,2013-08-14 19:40:00,
2013-08-14 15:50:00,72.8,53.6,29.99,NNW,336,4.0,4.0,51,0.00,,,0.00,786,Wunderground v.1.15,2013-08-14 19:50:00,
2013-08-14 16:00:00,72.8,54.7,29.99,WNW,299,4.0,4.0,53,0.00,,,0.00,849,Wunderground v.1.15,2013-08-14 20:00:00,
2013-08-14 16:10:00,73.0,54.3,29.99,NW,321,4.0,4.0,52,0.00,,,0.00,754,Wunderground v.1.15,2013-08-14 20:10:00,
2013-08-14 16:40:00,73.3,54.6,29.99,NW,316,3.0,3.0,52,0.00,,,0.00,729,Wunderground v.1.15,2013-08-14 20:40:00,
2013-08-14 16:50:00,73.3,53.5,30.00,NW,320,5.0,5.0,50,0.00,,,0.00,629,Wunderground v.1.15,2013-08-14 20:50:00,
2013-08-14 17:00:00,72.8,53.1,29.99,NNW,328,5.0,5.0,50,0.00,,,0.00,555,Wunderground v.1.15,2013-08-14 21:00:00,
2013-08-14 17:10:00,72.1,54.0,29.99,NW,305,4.0,4.0,53,0.00,,,0.00,527,Wunderground v.1.15,2013-08-14 21:10:00,
2013-08-14 17:20:00,71.9,54.3,30.00,NNW,330,3.0,4.0,54,0.00,,,0.00,490,Wunderground v.1.15,2013-08-14 21:20:00,
2013-08-14 17:30:00,72.0,53.9,30.00,NW,324,5.0,5.0,53,0.00,,,0.00,515,Wunderground v.1.15,2013-08-14 21:30:00,
2013-08-14 17:40:00,71.7,53.1,30.00,North,349,3.0,3.0,52,0.00,,,0.00,434,Wunderground v.1.15,2013-08-14 21:40:00,
2013-08-14 17:50:00,72.0,53.4,30.00,NNW,337,4.0,6.0,52,0.00,,,0.00,411,Wunderground v.1.15,2013-08-14 21:50:00,
2013-08-14 18:00:00,72.1,53.5,29.99,NNE,16,4.0,4.0,52,0.00,,,0.00,204,Wunderground v.1.15,2013-08-14 22:00:00,
2013-08-14 18:10:00,71.2,52.7,30.00,NW,317,3.0,3.0,52,0.00,,,0.00,54,Wunderground v.1.15,2013-08-14 22:10:00,
2013-08-14 18:20:00,70.8,52.8,30.00,NNW,342,2.0,2.0,53,0.00,,,0.00,90,Wunderground v.1.15,2013-08-14 22:20:00,
2013-08-14 18:30:00,71.0,53.0,30.00,NW,315,3.0,3.0,53,0.00,,,0.00,260,Wunderground v.1.15,2013-08-14 22:30:00,
2013-08-14 18:40:00,71.3,53.3,29.99,NW,326,3.0,3.0,53,0.00,,,0.00,221,Wunderground v.1.15,2013-08-14 22:40:00,
2013-08-14 18:50:00,70.9,53.9,29.99,NNW,347,3.0,3.0,55,0.00,,,0.00,185,Wunderground v.1.15,2013-08-14 22:50:00,
2013-08-14 19:00:00,70.6,53.6,29.99,NW,304,2.0,2.0,55,0.00,,,0.00,33,Wunderground v.1.15,2013-08-14 23:00:00,
2013-08-14 19:10:00,70.2,53.3,29.99,NNW,336,1.0,2.0,55,0.00,,,0.00,109,Wunderground v.1.15,2013-08-14 23:10:00,
2013-08-14 19:20:00,69.8,52.9,29.99,NW,323,2.0,2.0,55,0.00,,,0.00,26,Wunderground v.1.15,2013-08-14 23:20:00,
2013-08-14 19:30:00,69.4,52.5,30.00,NNW,331,1.0,1.0,55,0.00,,,0.00,21,Wunderground v.1.15,2013-08-14 23:30:00,
2013-08-14 19:40:00,68.8,52.9,30.01,NW,323,0.0,0.0,57,0.00,,,0.00,18,Wunderground v.1.15,2013-08-14 23:40:00,
2013-08-14 19:50:00,68.2,53.3,30.01,NW,322,0.0,0.0,59,0.00,,,0.00,12,Wunderground v.1.15,2013-08-14 23:50:00,
2013-08-14 20:00:00,67.8,53.9,30.02,WNW,296,0.0,0.0,61,0.00,,,0.00,7,Wunderground v.1.15,2013-08-15 00:00:00,
2013-08-14 20:10:00,67.1,53.2,30.02,WNW,282,0.0,0.0,61,0.00,,,0.00,0,Wunderground v.1.15,2013-08-15 00:10:00,
2013-08-14 20:20:00,66.6,53.2,30.02,WNW,282,0.0,0.0,62,0.00,,,0.00,0,Wunderground v.1.15,2013-08-15 00:20:00,
2013-08-14 20:30:00,66.4,53.8,30.02,WNW,282,0.0,0.0,64,0.00,,,0.00,0,Wunderground v.1.15,2013-08-15 00:30:00,
2013-08-14 20:40:00,66.1,53.6,30.03,WNW,282,0.0,0.0,64,0.00,,,0.00,0,Wunderground v.1.15,2013-08-15 00:40:00,
2013-08-14 20:50:00,65.5,53.8,30.03,WNW,282,0.0,0.0,66,0.00,,,0.00,0,Wunderground v.1.15,2013-08-15 00:50:00,
2013-08-14 21:00:00,65.0,53.8,30.04,WNW,282,0.0,0.0,67,0.00,,,0.00,0,Wunderground v.1.15,2013-08-15 01:00:00,
2013-08-14 21:10:00,64.5,53.7,30.04,WNW,282,0.0,0.0,68,0.00,,,0.00,0,Wunderground v.1.15,2013-08-15 01:10:00,
2013-08-14 21:20:00,64.4,53.6,30.04,WNW,282,0.0,0.0,68,0.00,,,0.00,0,Wunderground v.1.15,2013-08-15 01:20:00,
2013-08-14 21:30:00,63.9,53.9,30.05,WNW,282,0.0,0.0,70,0.00,,,0.00,0,Wunderground v.1.15,2013-08-15 01:30:00,
2013-08-14 21:40:00,61.7,53.7,30.06,WNW,282,0.0,0.0,75,0.00,,,0.00,0,Wunderground v.1.15,2013-08-15 01:40:00,
2013-08-14 21:50:00,60.2,54.3,30.06,WNW,282,0.0,0.0,81,0.00,,,0.00,0,Wunderground v.1.15,2013-08-15 01:50:00,
2013-08-14 22:00:00,59.7,54.2,30.07,WNW,282,0.0,0.0,82,0.00,,,0.00,0,Wunderground v.1.15,2013-08-15 02:00:00,
2013-08-14 22:10:00,59.0,54.2,30.07,WNW,282,0.0,0.0,84,0.00,,,0.00,0,Wunderground v.1.15,2013-08-15 02:10:00,
2013-08-14 22:20:00,59.0,54.2,30.07,WNW,282,0.0,0.0,84,0.00,,,0.00,0,Wunderground v.1.15,2013-08-15 02:20:00,
2013-08-14 22:30:00,57.9,53.4,30.07,WNW,282,0.0,0.0,85,0.00,,,0.00,0,Wunderground v.1.15,2013-08-15 02:30:00,
2013-08-14 22:40:00,57.4,53.9,30.07,WNW,282,0.0,0.0,88,0.00,,,0.00,0,Wunderground v.1.15,2013-08-15 02:40:00,
2013-08-14 22:50:00,57.3,53.8,30.07,WNW,282,0.0,0.0,88,0.00,,,0.00,0,Wunderground v.1.15,2013-08-15 02:50:00,
2013-08-14 23:00:00,57.0,53.8,30.07,WNW,282,0.0,0.0,89,0.00,,,0.00,0,Wunderground v.1.15,2013-08-15 03:00:00,
2013-08-14 23:10:00,56.8,54.5,30.08,WNW,282,0.0,0.0,92,0.00,,,0.00,0,Wunderground v.1.15,2013-08-15 03:10:00,
2013-08-14 23:20:00,56.6,53.4,30.08,WNW,282,0.0,0.0,89,0.00,,,0.00,0,Wunderground v.1.15,2013-08-15 03:20:00,
2013-08-14 23:30:00,56.0,53.1,30.08,WNW,282,0.0,0.0,90,0.00,,,0.00,0,Wunderground v.1.15,2013-08-15 03:30:00,
2013-08-14 23:40:00,55.5,52.9,30.08,WNW,282,0.0,0.0,91,0.00,,,0.00,0,Wunderground v.1.15,2013-08-15 03:40:00,
2013-08-14 23:50:00,55.9,53.6,30.08,WNW,282,0.0,0.0,92,0.00,,,0.00,0,Wunderground v.1.15,2013-08-15 03:50:00,